Location: Newark
(45.7667°N, 11.5167°E)
Time: 23:29:24
(UTC+00:00)

Envisat - Pass Details

Date: 29 January 2020
Orbit: 764 x 766 km, 98.1° (Epoch: 20 February)

Event Time Altitude Azimuth Distance (km) Brightness Sun altitude
Rises 18:19:43 0° 210° (SSW) 3,221 6.7 -21.8°
Reaches altitude 10° 18:22:49 10° 230° (SW) 2,300 6.2 -22.4°
Maximum altitude 18:26:04 17° 270° (W) 1,866 5.9 -22.9°
Drops below altitude 10° 18:29:21 10° 311° (NW) 2,311 6.1 -23.5°
Sets 18:32:29 0° 331° (NNW) 3,243 6.6 -24.0°
